[[{"header":{"parameterUnit":"m.s-1","parameterCategory":1,"la1":30.2991,"la2":30.254,"lo1":-89.0895,"lo2":-89.0444,"dy":0.0017,"dx":0.0017,"nx":28,"ny":28,"refTime":"2024-10-17T09:00:00:Z","depth":0,"parameterNumber":2,"parameterNumberName":"U-component_of_WINDS"},"data":[0,0,0,0,0,0,0,0,0,0,0,0,0,0,0,0,0,0,0,0,0,0,0,0,0,0,0,0,0,0,0,0,0,0,0,0,0,0,0,0,0,0,0,0,0,0,0,0,0,0,0,0,0,0,0,0,0,0,-3.2823,-3.2823,0,-3.2857,-3.2857,-3.2858,-3.271,-3.2706,-3.2702,-3.2698,-3.2733,-3.2738,-3.2743,0,0,0,0,0,0,0,0,0,0,0,0,0,-3.263,-3.2634,-3.2823,-3.2823,-3.2823,-3.2857,-3.2857,-3.2858,-3.2711,-3.2706,-3.2701,-3.2696,-3.2732,-3.2738,-3.2744,0,0,0,0,0,0,0,0,0,0,0,0,0,-3.2694,-3.2635,-3.2823,-3.2754,-3.2749,-3.2857,-3.2857,-3.2858,-3.2712,-3.2706,-3.2699,-3.2693,-3.273,-3.2737,-3.2744,-3.292,0,0,-3.2767,-3.277,0,0,0,0,0,0,0,0,-3.269,-3.2701,-3.2764,-3.2759,-3.2753,-3.2773,-3.2802,-3.2879,-3.2714,-3.2726,-3.2698,-3.269,-3.2752,-3.2757,-3.2778,-3.2922,-3.2923,-3.2768,-3.2772,-3.2776,-3.2778,0,0,0,0,0,0,0,-3.2686,-3.2699,-3.2836,-3.2765,-3.2758,-3.2722,-3.2724,-3.2816,-3.2775,-3.2724,-3.2714,-3.272,-3.2747,-3.2771,-3.2777,-3.2924,-3.2768,-3.2774,-3.2779,-3.2782,-3.3213,-3.322,0,0,0,0,0,0,-3.2691,-3.2696,-3.2835,-3.2837,-3.2705,-3.273,-3.2733,-3.2773,-3.2773,-3.2767,-3.2725,-3.2713,-3.2761,-3.2769,-3.2778,-3.2984,-3.2776,-3.2783,-3.2787,-3.3206,-3.3215,-3.3222,0,0,0,0,0,0,-3.2687,-3.2704,-3.2834,-3.2764,-3.2777,-3.2741,-3.2787,-3.2777,-3.28,-3.2774,-3.2766,-3.2757,-3.2756,-3.2768,-3.2886,-3.2983,-3.2786,-3.2793,-3.3198,-3.3209,-3.3218,-3.3398,0,0,0,0,0,0,-3.2682,-3.2704,-3.2771,-3.2766,-3.2782,-3.2942,-3.2793,-3.2782,-3.2813,-3.2797,-3.2802,-3.2796,-3.2752,-3.2875,-3.2893,-3.299,-3.2798,-3.3189,-3.3203,-3.3215,-3.3384,-3.3414,-3.3439,0,0,0,0,0,-3.2676,-3.282,-3.2775,-3.2793,-3.2864,-3.2948,-3.2956,-3.2903,-3.2822,-3.2889,-3.2871,-3.2796,-3.2969,-3.2889,-3.2907,-3.3008,-3.3183,-3.3199,-3.3214,-3.3371,-3.3408,-3.3439,0,0,0,0,0,0,-3.2838,-3.2819,-3.2768,-3.2915,-3.2934,-3.2923,-3.3005,-3.2943,-3.2986,-3.2969,-3.2901,-3.2903,-3.3033,-3.3032,-3.2942,-3.3178,-3.3062,-3.3082,-3.3175,-3.321,-3.3237,-3.3236,-3.2805,0,0,0,0,0,-3.2891,-3.296,-3.2939,-3.3071,-3.3083,-3.3043,-3.3077,-3.3034,-3.3051,-3.3058,-3.305,-3.3069,-3.3127,-3.3168,-3.322,-3.3381,-3.338,-3.346,-3.3488,-3.3511,-3.353,-3.3615,-3.3651,-3.3274,-3.3273,-3.3273,0,0,-3.3001,-3.2999,-3.3047,-3.3104,-3.3113,-3.3187,-3.3051,-3.3134,-3.3188,-3.3071,-3.3182,-3.3177,-3.3193,-3.3334,-3.3395,-3.3337,-3.3633,-3.3531,-3.3549,-3.3556,-3.3635,-3.3671,-3.3703,-3.3284,-3.3282,-3.3281,0,0,-3.324,-3.3245,-3.3355,-3.3367,-3.3383,-3.3355,-3.3382,-3.3379,-3.3371,-3.3481,-3.3395,-3.3457,-3.356,-3.3575,-3.3597,-3.384,-3.3772,-3.3858,-3.4006,-3.409,-3.4119,-3.4145,-3.4234,-3.4266,-3.3877,-3.3877,-3.3878,0,-3.3375,-3.3482,-3.342,-3.351,-3.3537,-3.3433,-3.3545,-3.356,-3.3592,-3.3614,-3.3547,-3.3673,-3.3677,-3.382,-3.3879,-3.3899,-3.3928,-3.3859,-3.412,-3.4146,-3.4169,-3.4252,-3.4285,-3.3888,-3.3887,-3.3886,-3.3885,0,-3.3648,-3.3724,-3.3811,-3.3846,-3.3882,-3.3983,-3.3936,-3.398,-3.3933,-3.3912,-3.4026,-3.4026,-3.4077,-3.4107,-3.4062,-3.4244,-3.4207,-3.4132,-3.4014,-3.4217,-3.4294,-3.4325,-3.3903,-3.3899,-3.3896,-3.3893,0,0,-3.3994,-3.399,-3.4024,-3.4038,-3.4047,-3.4104,-3.4199,-3.4248,-3.4288,-3.4313,-3.4392,-3.448,-3.4409,-3.4434,-3.4389,-3.4462,-3.4656,-3.4377,-3.4376,-3.4431,-3.4858,-3.4917,-3.4955,-3.461,-3.4616,-3.462,-3.4857,0,-3.4229,-3.4392,-3.4338,-3.4503,-3.4573,-3.4474,-3.4556,-3.4571,-3.4553,-3.4609,-3.4588,-3.4653,-3.4554,-3.4568,-3.4636,-3.4619,-3.4741,-3.46,-3.4683,-3.4687,-3.4685,-3.4995,-3.5058,-3.5281,-3.4886,-3.4891,-3.4895,0,-3.4527,-3.4564,-3.4736,-3.4733,-3.476,-3.4835,-3.4876,-3.493,-3.4944,-3.4925,-3.4952,-3.4891,-3.4984,-3.4864,-3.4991,-3.4896,-3.4926,-3.4922,-3.493,-3.4938,-3.4806,-3.5013,-3.5351,-3.5386,-3.4942,-3.4938,-3.4935,0,-3.4764,-3.4856,-3.4971,-3.4986,-3.4984,-3.504,-3.5042,-3.5048,-3.5081,-3.5116,-3.5137,-3.5182,-3.5208,-3.5244,-3.5197,-3.5114,-3.5332,-3.5208,-3.532,-3.5322,-3.5373,-3.5371,-3.5723,-3.5389,-3.5388,-3.5387,-3.5387,0,-3.5034,-3.5144,-3.5078,-3.5149,-3.5269,-3.5205,-3.5325,-3.5315,-3.5322,-3.539,-3.5305,-3.5371,-3.5303,-3.5362,-3.5325,-3.5437,-3.5448,-3.5437,-3.5426,-3.5446,-3.5448,-3.5467,-3.5451,-3.5396,-3.5394,-3.5393,-3.5391,0,-3.5321,-3.528,-3.54,-3.5388,-3.5387,-3.5476,-3.5466,-3.5531,-3.5506,-3.5592,-3.5609,-3.557,-3.5635,-3.5591,-3.5655,-3.563,-3.5777,-3.5743,-3.5773,-3.5765,-3.5881,-3.5871,-3.6259,-3.6307,-3.594,-3.5944,-3.5947,0,-3.5498,-3.558,-3.5576,-3.5615,-3.5623,-3.5687,-3.5719,-3.5659,-3.5696,-3.5717,-3.578,-3.5837,-3.588,-3.5988,-3.5966,-3.6014,-3.5983,-3.6115,-3.599,-3.6007,-3.5987,-3.5984,-3.5992,-3.6142,-3.6146,-3.615,-3.6153,0,-3.5816,-3.5792,-3.5842,-3.5887,-3.5928,-3.596,-3.5985,-3.6021,-3.596,-3.6006,-3.6071,-3.6104,-3.617,-3.6228,-3.6268,-3.6269,-3.6202,-3.6192,-3.6221,-3.6243,-3.6258,-3.6253,-3.5845,-3.6184,-3.6181,-3.6178,-3.6177,-3.6175,-3.6054,-3.6123,-3.6131,-3.6191,-3.6202,-3.6227,-3.6288,-3.627,-3.6323,-3.6372,-3.6332,-3.641,-3.642,-3.6467,-3.6476,-3.6536,-3.6482,-3.6523,-3.6534,-3.6546,-3.6563,-3.6246,-3.6543,-3.6542,-3.6541,-3.654,-3.6539,0,-3.637,-3.637,-3.6425,-3.6463,-3.6509,-3.644,-3.6463,-3.6507,-3.6577,-3.6591,-3.6635,-3.6709,-3.6765,-3.6746,-3.6795,-3.6847,-3.6817,-3.6862,-3.6859,-3.686,-3.6608,-3.6579,-3.6885,-3.6885,-3.6885,-3.6885,-3.6885,-3.6885,-3.6541,-3.6653,-3.663,-3.6747,-3.6745,-3.6821,-3.6841,-3.6863,-3.6875,-3.6962,-3.7007,-3.6994,-3.6996,-3.7044,-3.7092,-3.7084,-3.7107,-3.7164,-3.7147,-3.6912,-3.6878,-3.6846,-3.6818,-3.7169,-3.717,-3.7394,-3.7396,-3.7398]},{"header":{"parameterUnit":"m.s-1","parameterCategory":1,"la1":30.2991,"la2":30.254,"lo1":-89.0895,"lo2":-89.0444,"dy":0.0017,"dx":0.0017,"nx":28,"ny":28,"refTime":"2024-10-17T09:00:00:Z","depth":0,"parameterNumber":3,"parameterNumberName":"V-component_of_WINDS"},"data":[0,0,0,0,0,0,0,0,0,0,0,0,0,0,0,0,0,0,0,0,0,0,0,0,0,0,0,0,0,0,0,0,0,0,0,0,0,0,0,0,0,0,0,0,0,0,0,0,0,0,0,0,0,0,0,0,0,0,-6.4429,-6.443,0,-6.4492,-6.4493,-6.4493,-6.4366,-6.4362,-6.4358,-6.4354,-6.4413,-6.4418,-6.4424,0,0,0,0,0,0,0,0,0,0,0,0,0,-6.4193,-6.4198,-6.4429,-6.443,-6.4431,-6.4492,-6.4493,-6.4494,-6.4367,-6.4361,-6.4356,-6.4352,-6.4411,-6.4418,-6.4424,0,0,0,0,0,0,0,0,0,0,0,0,0,-6.428,-6.42,-6.4429,-6.4375,-6.4371,-6.4492,-6.4493,-6.4494,-6.4368,-6.4361,-6.4355,-6.4349,-6.4409,-6.4417,-6.4425,-6.46,0,0,-6.445,-6.4453,0,0,0,0,0,0,0,0,-6.4275,-6.4289,-6.4382,-6.4379,-6.4374,-6.4415,-6.4431,-6.4529,-6.4369,-6.4369,-6.4353,-6.4346,-6.4418,-6.4425,-6.445,-6.4603,-6.4605,-6.4451,-6.4456,-6.4459,-6.4461,0,0,0,0,0,0,0,-6.4269,-6.4285,-6.4454,-6.4384,-6.4379,-6.4345,-6.4351,-6.4449,-6.4427,-6.4368,-6.4359,-6.4369,-6.4415,-6.4443,-6.4451,-6.4606,-6.445,-6.4458,-6.4463,-6.4466,-6.4903,-6.4909,0,0,0,0,0,0,-6.4271,-6.4281,-6.4452,-6.4456,-6.4309,-6.4355,-6.4361,-6.4408,-6.4426,-6.4423,-6.4374,-6.4362,-6.4432,-6.4442,-6.4453,-6.4657,-6.4459,-6.4467,-6.4471,-6.4896,-6.4904,-6.4912,0,0,0,0,0,0,-6.4266,-6.4287,-6.4449,-6.4366,-6.4384,-6.4365,-6.442,-6.4413,-6.444,-6.443,-6.4425,-6.4407,-6.4428,-6.4441,-6.4564,-6.4658,-6.447,-6.4478,-6.4888,-6.4899,-6.4908,-6.507,0,0,0,0,0,0,-6.426,-6.4287,-6.4354,-6.4369,-6.4389,-6.4562,-6.4425,-6.4418,-6.4456,-6.4441,-6.446,-6.4457,-6.4424,-6.4553,-6.4572,-6.4666,-6.4484,-6.488,-6.4893,-6.4905,-6.5056,-6.5084,-6.5108,0,0,0,0,0,-6.4252,-6.4397,-6.4359,-6.438,-6.4474,-6.4568,-6.4579,-6.454,-6.4464,-6.4531,-6.4524,-6.4457,-6.4645,-6.4566,-6.4587,-6.4685,-6.4874,-6.4889,-6.4904,-6.5044,-6.5079,-6.5108,0,0,0,0,0,0,-6.4393,-6.4398,-6.4355,-6.4509,-6.454,-6.4546,-6.463,-6.4577,-6.4628,-6.4613,-6.4559,-6.4564,-6.4697,-6.4703,-6.4616,-6.4854,-6.4746,-6.4766,-6.4846,-6.4878,-6.4904,-6.4899,-6.4491,0,0,0,0,0,-6.4442,-6.452,-6.4519,-6.4655,-6.4672,-6.4649,-6.4688,-6.4655,-6.4683,-6.4695,-6.4697,-6.4725,-6.479,-6.4834,-6.4894,-6.5056,-6.5057,-6.5133,-6.5159,-6.5181,-6.5199,-6.5283,-6.5316,-6.4961,-6.4961,-6.4961,0,0,-6.4544,-6.4556,-6.4608,-6.4684,-6.4703,-6.4783,-6.466,-6.475,-6.4808,-6.4708,-6.4824,-6.4827,-6.4855,-6.4998,-6.5061,-6.5007,-6.5297,-6.52,-6.5217,-6.5223,-6.5302,-6.5336,-6.5366,-6.4971,-6.497,-6.4968,0,0,-6.477,-6.4788,-6.4903,-6.4925,-6.4956,-6.4939,-6.4967,-6.4982,-6.498,-6.5097,-6.5023,-6.509,-6.5204,-6.5226,-6.5253,-6.5487,-6.5426,-6.5508,-6.5644,-6.5727,-6.5755,-6.5779,-6.5862,-6.5892,-6.5525,-6.5526,-6.5526,0,-6.4892,-6.5012,-6.4968,-6.5063,-6.5097,-6.5011,-6.5126,-6.5148,-6.5197,-6.5222,-6.5161,-6.5301,-6.5314,-6.546,-6.5518,-6.5542,-6.557,-6.5505,-6.5755,-6.5779,-6.5801,-6.5879,-6.591,-6.5535,-6.5534,-6.5533,-6.5532,0,-6.516,-6.5244,-6.5332,-6.5383,-6.5427,-6.5531,-6.5501,-6.5551,-6.5513,-6.5502,-6.5621,-6.5633,-6.5693,-6.5725,-6.5689,-6.5867,-6.5832,-6.5764,-6.5654,-6.5845,-6.5918,-6.5947,-6.5549,-6.5546,-6.5543,-6.554,0,0,-6.5477,-6.5502,-6.5535,-6.5557,-6.5584,-6.5647,-6.5746,-6.5806,-6.5849,-6.5885,-6.5966,-6.6064,-6.6001,-6.6031,-6.5996,-6.607,-6.6253,-6.5992,-6.5991,-6.6039,-6.6447,-6.6498,-6.6534,-6.6213,-6.6218,-6.6223,-6.6445,0,-6.5701,-6.5874,-6.5837,-6.6006,-6.6082,-6.6001,-6.6087,-6.6112,-6.6104,-6.6165,-6.6155,-6.6226,-6.6138,-6.6155,-6.6224,-6.6216,-6.6334,-6.6199,-6.6286,-6.6289,-6.6281,-6.6571,-6.6626,-6.6835,-6.6473,-6.6477,-6.6481,0,-6.5986,-6.6034,-6.6212,-6.6226,-6.6256,-6.6335,-6.6386,-6.6446,-6.6472,-6.6461,-6.6495,-6.6446,-6.6542,-6.6432,-6.6562,-6.6472,-6.6504,-6.6506,-6.6513,-6.6519,-6.6397,-6.6585,-6.6901,-6.6932,-6.6525,-6.6522,-6.6518,0,-6.6198,-6.6307,-6.6427,-6.6448,-6.6468,-6.6525,-6.6536,-6.6556,-6.6594,-6.6638,-6.6661,-6.6716,-6.6746,-6.6788,-6.6754,-6.6677,-6.6889,-6.6777,-6.6881,-6.6883,-6.693,-6.6927,-6.7255,-6.6952,-6.6952,-6.6951,-6.6951,0,-6.6452,-6.6563,-6.6523,-6.6597,-6.6718,-6.6673,-6.6794,-6.6795,-6.6813,-6.6884,-6.6816,-6.6884,-6.6835,-6.6898,-6.6872,-6.6983,-6.6997,-6.6989,-6.6981,-6.6995,-6.6996,-6.7016,-6.7,-6.6959,-6.6958,-6.6956,-6.6955,0,-6.671,-6.6688,-6.6813,-6.6822,-6.6826,-6.6916,-6.6922,-6.6989,-6.6976,-6.7067,-6.7085,-6.7064,-6.7135,-6.7105,-6.7179,-6.7161,-6.7304,-6.7276,-6.7296,-6.7288,-6.7395,-6.7385,-6.7746,-6.779,-6.746,-6.7463,-6.7466,0,-6.6873,-6.6957,-6.6975,-6.7019,-6.7035,-6.7106,-6.7144,-6.7102,-6.7145,-6.718,-6.7243,-6.7308,-6.7357,-6.7473,-6.7463,-6.7519,-6.7491,-6.7614,-6.7499,-6.7511,-6.7492,-6.7488,-6.7495,-6.7637,-6.7641,-6.7644,-6.7647,0,-6.7165,-6.7149,-6.7209,-6.7265,-6.7313,-6.7355,-6.739,-6.7428,-6.7388,-6.7439,-6.7511,-6.7549,-6.7625,-6.7689,-6.7738,-6.7746,-6.769,-6.7683,-6.771,-6.7725,-6.7733,-6.7729,-6.7358,-6.7675,-6.7672,-6.767,-6.7668,-6.7667,-6.738,-6.745,-6.7474,-6.7542,-6.7564,-6.7599,-6.7662,-6.7657,-6.7717,-6.7776,-6.7747,-6.783,-6.7852,-6.7912,-6.7928,-6.7991,-6.7943,-6.7982,-6.7992,-6.8002,-6.8016,-6.7723,-6.8,-6.7999,-6.7998,-6.7997,-6.7997,0,-6.7667,-6.7678,-6.7742,-6.7793,-6.7847,-6.779,-6.7825,-6.7873,-6.7948,-6.7973,-6.8024,-6.8105,-6.8167,-6.8162,-6.8219,-6.827,-6.8245,-6.8286,-6.8282,-6.8284,-6.8056,-6.8027,-6.8305,-6.8305,-6.8305,-6.8305,-6.8305,-6.8305,-6.7823,-6.7939,-6.7926,-6.8052,-6.8061,-6.8143,-6.8168,-6.8199,-6.8219,-6.8314,-6.8366,-6.8363,-6.8375,-6.8432,-6.8486,-6.8482,-6.8506,-6.8557,-6.8544,-6.8331,-6.83,-6.8271,-6.8243,-6.8562,-6.8563,-6.8766,-6.8768,-6.8769]}]]